Погода в Черновке

Россия / Новосибирская область     54°09′09″N   79°59′48″E
темп.,
°C
ветер,
м/с
пор.,
м/с
влажн.,
%
обл.,
%
осадки,
мм/ч
давл.,
гПа
погр.,
м
19 сентября, вс
вс1901:00+8ююз4959100 0.0 1009401
04:00+6ю51267100 0.0 1008332
07:00+7ю71663100 0.0 1006547
10:00+10ююз81456100 0.0 1004934
13:00+12зюз91457100 0.0 10031651
16:00+11зюз7105796 0.1 10041722
19:00+9з7106697 0.3 10061096
22:00+6зюз4106725 0.0 1007426
20 сентября, пн
пн2001:00+5зюз511705 0.0 1008409
04:00+4зюз61272100 0.0 1009545
07:00+3юз71390100 0.0 1010857
10:00+4юз81393100 0.3 1011978
13:00+6зюз81173100 0.8 10121325
16:00+5зюз71183100 0.8 10121172
19:00+4з61081100 1.4 10131069
22:00+3з5118790 0.2 1013629
21 сентября, вт
вт2101:00+2з489689 0.3 1014478
04:00+2з5994100 0.4 1015683
07:00+2зюз61297100 0.4 1015622
10:00+3зсз61297100 0.3 1017660
13:00+5зсз7972100 0.5 10181197
16:00+6зсз6960100 0.1 10191529
19:00+5зсз5874100 0.4 1020819
22:00+3зсз479493 0.2 1021390
22 сентября, ср
ср2201:00+1з3692100 0.3 1022213
04:000з359465 0.0 1021160
07:00+1зюз3699100 0.0 1022257
10:00+2з469396 0.3 1022461
13:00+4з556594 0.4 10221242
16:00+5зюз5663100 0.1 10211154
19:00+4з4570100 0.2 1021828
22:00+2юз3576100 0.0 1021134
23 сентября, чт
чт2301:00+2з3789100 0.1 1021331
04:00+2юз3793100 0.4 1020326
07:00+1зюз4897100 0.6 1020406
10:00+1сз4898100 0.8 1021306
13:00+2сз5792100 1.3 1022520
16:00+3ссз688097 0.6 1023933
19:00+2сз4888100 0.8 1025702
22:00+2ссз4997100 0.1 1027492